Location: Winthrop
(48.4780°N, 120.1850°W)
Time: 00:58:24
(UTC-07:00)

S-56A Canister/Altair - Pass Details

Date: 02 June 2023
Orbit: 640 x 2489 km, 38.9° (Epoch: 29 September)

Event Time Altitude Azimuth Distance (km) Brightness Sun altitude
Rises 03:24:00 0° 278° (W) 6,166 11.9 -12.2°
Reaches altitude 10° 03:28:26 10° 271° (W) 5,141 11.4 -11.8°
Maximum altitude 03:41:26 40° 211° (SSW) 2,997 10.0 -10.5°
Drops below altitude 10° 03:51:52 10° 147° (SSE) 4,134 11.1 -9.4°
Sets 03:55:02 0° 140° (SE) 4,882 11.5 -9.1°
